sat.trackr.live / text

‹ back to catalog

STARLINK-35136

NORAD 65537 · 2025-200T

PAYLOAD ACTIVE UNKNOWN

§ Identity

Operator
Country
US
Launch date
2025-09-06
Launch site
AFWTR
Launch vehicle
Mass (kg)
RCS (m²)

Purposes: comms

External: N2YO · Heavens-Above · Gunter

§ Orbital elements

Epoch: 2026-05-25T03:37:39.247680Z

Period
95.64 min
Inclination
97.4527°
Eccentricity
0.0001966
Mean motion
15.05632390 rev/d
Perigee alt
548.2 km
Apogee alt
550.9 km
Semi-major
6,927.7 km
B*
-4.3686e-4
RAAN
214.7598°
Arg perigee
219.9353°
Mean anomaly
140.1730°
Rev number
4,054

§ Raw data

STARLINK-351361 65537U 25200T   26145.15114870 -.00006354  00000+0 -43686-3 0  99992 65537  97.4527 214.7598 0001966 219.9353 140.1730 15.05632390 40545

JSON: /api/v1/satellites/65537 · /tle

For live sub-satellite position, see the globe view (requires WebGL).

§ Visibility from observer

Set your observer location to see the next 7 days of passes ≥ 10°. The values pass through the URL so the page stays shareable.

No JS? Fill the form by hand. The geolocation button needs JavaScript.